Regional Weather Roundup
Issued by NWS

Home | Current Version | Previous Version | Text Only | Print | Product List | Glossary On
Versions: 1 2 3 4 5 6 7 8 9 10 11 12 13 14 15 16 17 18 19 20 21 22 23 24 25 26 27 28 29 30 31 32 33 34 35 36 37 38 39 40 41 42 43 44 45 46 47 48 49 50
000
ASUS45 KPSR 210210
RWRAZ

ARIZONA HOURLY REGIONAL WEATHER ROUNDUP
NATIONAL WEATHER SERVICE PHOENIX AZ
700 PM MST FRI JAN 20 2017

NOTE: FAIR INDICATES FEW OR NO CLOUDS BELOW 12,000 FEET WITH NO
SIGNIFICANT WEATHER AND/OR OBSTRUCTIONS TO VISIBILITY.

AZZ001>003-036-210300-
NORTHWEST ARIZONA

CITY           SKY/WX    TMP DP  RH WIND       PRES   REMARKS
BULLHEAD CITY  CLOUDY    52  46  82 S28G39    29.41F
KINGMAN        CLOUDY    43  35  73 SW12      29.42F
$$

AZZ004>008-015-016-018-210300-
NORTH CENTRAL ARIZONA

CITY           SKY/WX    TMP DP  RH WIND       PRES   REMARKS
GRAND CANYON   LGT SNOW  30  30 100 S13G23    29.46F FOG     WCI  20
WILLIAMS       CLOUDY    30  28  93 S18G24    29.46F FOG     WCI  18
PRESCOTT       LGT RAIN  35  34  96 SE15      29.49F WCI  25
FLAGSTAFF      HVY SNOW  28  27  96 SW15G25   29.50F VSB 1/4 WCI  16
PAYSON         MIX PCPN  34  34 100 VRB6G13   29.61S WCI  29
PAGE           CLOUDY    41  30  65 S7        29.46S
$$

AZZ009>014-017-210300-
NORTHEAST ARIZONA

CITY           SKY/WX    TMP DP  RH WIND       PRES   REMARKS
WINSLOW        CLOUDY    41  31  67 SE9       29.53F
SAINT JOHNS    CLOUDY    37  29  72 NW3       29.56F
SHOW LOW       LGT SNOW  32  28  86 S22G29    29.56F WCI  19
$$

AZZ023-210300-
GREATER PHOENIX AREA

CITY           SKY/WX    TMP DP  RH WIND       PRES   REMARKS
PHOENIX        LGT RAIN  52  49  89 SE12      29.54F
BUCKEYE        CLOUDY    50  50 100 SE10G16   29.54F
GLENDALE       RAIN      52  52 100 MISG      29.55F FOG
LUKE AFB       LGT RAIN  52 N/A N/A SE6       29.53F
DEER VALLEY    LGT RAIN  50  50 100 SE10      29.53F FOG
SCOTTSDALE     LGT RAIN  50  49  96 SE7       29.56F
MESA-FALCON    CLOUDY   N/A N/A N/A SE17      29.54F
MESA-GATEWAY   LGT RAIN  52  48  87 SE13G18   29.59F
$$

AZZ027-028-210300-
SOUTHWEST MARICOPA COUNTY AND PINAL COUNTY

CITY           SKY/WX    TMP DP  RH WIND       PRES   REMARKS
CASA GRANDE    CLOUDY    53  48  83 S20G30    29.59F
$$

AZZ503-504-507>509-210300-
SOUTHEAST ARIZONA

CITY           SKY/WX    TMP DP  RH WIND       PRES   REMARKS
TUCSON         CLOUDY    52  42  69 SW14G22   29.69S
DAVIS-MONTHAN  CLOUDY    50  41  71 S7        29.68S
RYAN FIELD     MOCLDY    54  43  66 S15G35    29.67F
NOGALES        LGT RAIN  44  41  89 S13       29.73F
SIERRA VISTA   LGT RAIN  42  37  82 S13G24    29.71F
DOUGLAS        LGT RAIN  44  42  93 S7        29.73F
SAFFORD        CLOUDY    49  39  68 N8        29.64S
$$

AZZ020-021-025-026-031-210300-
SOUTHWEST ARIZONA

CITY           SKY/WX    TMP DP  RH WIND       PRES   REMARKS
YUMA           HVY RAIN  54  50  86 W6G21     29.56R FOG
$$

CAZ031-033-041-043-047-048-061-210300-
SOUTHERN CALIFORNIA

CITY           SKY/WX    TMP DP  RH WIND       PRES   REMARKS
DOWNTOWN L.A.  CLEAR     54  46  74 W10G21    29.48R
L.A. AIRPORT   MOCLDY    54  47  77 W32G38    29.48R
SAN DIEGO      LGT RAIN  54  49  83 W15G23    29.58R
BURBANK        CLOUDY    51  42  71 W15       29.47R
ONTARIO        CLOUDY    51  45  79 SW15G24   29.46R
RIVERSIDE      CLOUDY    52  47  83 W20G28    29.47
PALM SPRINGS   LGT RAIN  50  50 100 CALM      29.48R FOG
EL CENTRO NAS  MOCLDY    54  48  80 SE13      29.48F
IMPERIAL       PTCLDY    56  49  77 S12       29.46F
BLYTHE         CLOUDY    53  51  93 SW12      29.48S
NEEDLES        LGT RAIN  53  47  79 S8        29.45S
$$

NVZ020-UTZ003-210300-
SOUTHERN NEVADA-UTAH

CITY           SKY/WX    TMP DP  RH WIND       PRES   REMARKS
LAS VEGAS      CLOUDY    47  39  74 VRB5      29.30F
SALT LAKE CITY CLOUDY    35  30  82 S7        29.34S WCI  29
$$

NMZ009-TXZ055-210300-
NEW MEXICO-WEST TEXAS

CITY           SKY/WX    TMP DP  RH WIND       PRES   REMARKS
ALBUQUERQUE    CLOUDY    35  34  96 E9        29.65S WCI  28
EL PASO        CLOUDY    55  26  32 W18G29    29.68S
$$


........................KEY........................
SKY/WX - SKY CONDITION/WEATHER
TMP    - TEMPERATURE IN FAHRENHEIT
DP     - DEW POINT IN FAHRENHEIT
RH     - RELATIVE HUMIDITY IN PERCENT
WIND   - DIRECTION AND SPEED IN MILES PER HOUR (MPH)
VRB    - VARIABLE WIND DIRECTION
PRES   - MEAN SEA LEVEL PRESSURE IN INCHES OF MERCURY
         F - FALLING PRESSURE   R - RISING PRESSURE
         S - STEADY PRESSURE
VSB    - VISIBILITY IN MILES
HX     - HEAT INDEX IN FAHRENHEIT
WCI    - WIND CHILL INDEX IN FAHRENHEIT
TC     - TEMPERATURE IN CELSIUS WHICH IS ALSO KNOWN AS
         TEMPERATURE IN CENTIGRADE
AFB    - AIR FORCE BASE
         LUKE AFB IS LUKE AIR FORCE BASE
         DAVIS-MONTHAN IS DAVIS-MONTHAN AIR FORCE BASE
NAS    - NAVAL AIR STATION
         EL CENTRO NAS IS EL CENTRO NAVAL AIR STATION
N/A    - NOT AVAILABLE




USA.gov is the U.S. government's official web portal to all federal, state and local government web resources and services.